Lyndonville, VT

3:36 AM EDT on October 19, 2017 (GMT -0400)
Lyndonville

Weather History for KCDA - April, 2013

Change the Weather History Date:

Sunday, April 14, 2013

  Actual Average (K1V4) Record (K1V4)
Temperature  
Mean Temperature 38 °F -  
Max Temperature 45 °F 51 °F 83 °F (1945)
Min Temperature 31 °F 30 °F 9 °F (1992)
Degree Days  
Heating Degree Days 26    
Moisture  
Dew Point 30 °F    
Average Humidity 77    
Maximum Humidity 95    
Minimum Humidity 49    
Precipitation  
Precipitation 0.00 in - - ()
Sea Level Pressure  
Sea Level Pressure 29.99 in    
Wind  
Wind Speed 3 mph (NW)    
Max Wind Speed 18 mph    
Max Gust Speed 23 mph    
Visibility 7 miles    
Events Fog , Rain    
Averages and records for this station are not official NWS values.
T = Trace of Precipitation, MM = Missing Value Source: NWS Daily Summary

Daily Weather History Graph

Daily Weather History Graph

Search for Another Location

Airport or City:

Trip Planner

Search our weather history database for the weather conditions in past years. The results will help you decide how hot, cold, wet, or windy it might be!

Date:

Astronomy

Apr. 14, 2013 Rise Set
Actual Time 6:05 AM EDT 7:31 PM EDT
Civil Twilight 5:35 AM EDT 8:02 PM EDT
Nautical Twilight 4:58 AM EDT 8:39 PM EDT
Astronomical Twilight 4:19 AM EDT 9:18 PM EDT
Moon 8:32 AM EDT (4/14) 11:50 PM EDT (4/14)
Length of Visible Light 14h 27m
Length of Day
13h 26m
Waxing Crescent, 17% of the Moon is Illuminated
Apr 14
Waxing Crescent
Apr 18
First Quarter
Apr 25
Full
May 2
Last Quarter
May 9
New

Hourly Weather History & Observations

Time (EDT) Temp. Windchill Dew Point Humidity Pressure Visibility Wind Dir Wind Speed Gust Speed Precip Events Conditions
12:15 AM 35.1 °F - 32.4 °F 90% 29.88 in 10.0 mi Calm Calm - N/A   Mostly Cloudy
12:35 AM 34.9 °F - 32.4 °F 91% 29.89 in 10.0 mi Calm Calm - N/A   Mostly Cloudy
12:55 AM 35.1 °F - 32.4 °F 90% 29.89 in 10.0 mi Calm Calm - N/A   Overcast
1:15 AM 34.2 °F - 32.0 °F 92% 29.89 in 7.0 mi Calm Calm - N/A   Overcast
1:35 AM 35.8 °F - 33.3 °F 91% 29.89 in 7.0 mi Calm Calm - N/A   Overcast
1:55 AM 33.8 °F - 31.8 °F 92% 29.88 in 0.8 mi Calm Calm - N/A   Overcast
2:15 AM 32.9 °F 29.8 °F 31.3 °F 94% 29.88 in 0.2 mi ENE 3.5 mph - N/A Fog Fog
2:35 AM 33.4 °F - 31.8 °F 94% 29.88 in 0.8 mi Calm Calm - N/A   Overcast
2:55 AM 33.1 °F - 31.5 °F 94% 29.87 in 1.0 mi Calm Calm - N/A   Overcast
3:15 AM 32.7 °F - 31.1 °F 94% 29.87 in 0.8 mi Calm Calm - N/A   Overcast
3:35 AM 32.5 °F 29.3 °F 30.7 °F 93% 29.87 in 1.0 mi ENE 3.5 mph - N/A   Overcast
3:55 AM 32.4 °F - 30.7 °F 94% 29.87 in 0.2 mi Calm Calm - N/A Fog Fog
4:15 AM 32.0 °F 28.7 °F 30.2 °F 93% 29.86 in 0.2 mi East 3.5 mph - N/A Fog Fog
4:35 AM 32.0 °F - 30.2 °F 93% 29.87 in 0.2 mi Calm Calm - N/A Fog Fog
4:55 AM 32.0 °F - 30.2 °F 93% 29.87 in 0.5 mi Calm Calm - N/A Fog Fog
5:15 AM 32.0 °F - 30.4 °F 94% 29.88 in 0.2 mi Calm Calm - N/A Fog Fog
5:35 AM 32.4 °F - 30.9 °F 94% 29.88 in 0.2 mi Calm Calm - N/A Fog Fog
5:55 AM 32.9 °F - 31.6 °F 95% 29.88 in 4.0 mi Calm Calm - N/A   Overcast
6:15 AM 33.1 °F - 31.6 °F 94% 29.89 in 2.0 mi Calm Calm - N/A   Overcast
6:35 AM 32.5 °F - 30.9 °F 94% 29.90 in 0.2 mi Calm Calm - N/A Fog Fog
6:55 AM 33.1 °F - 31.6 °F 94% 29.90 in 2.5 mi Calm Calm - N/A   Overcast
7:15 AM 33.1 °F - 31.6 °F 94% 29.91 in 0.5 mi Calm Calm - N/A Fog Fog
7:35 AM 32.5 °F - 31.1 °F 94% 29.92 in 0.2 mi Calm Calm - N/A Rain Light Rain
7:55 AM 32.9 °F - 31.5 °F 94% 29.93 in 0.8 mi Calm Calm - N/A Rain Rain
8:15 AM 33.3 °F - 32.0 °F 95% 29.93 in 2.5 mi Calm Calm - N/A Rain Light Rain
8:35 AM 34.2 °F - 32.2 °F 92% 29.93 in 4.0 mi Calm Calm - N/A Rain Light Rain
8:55 AM 34.9 °F - 32.9 °F 92% 29.93 in 0.2 mi Calm Calm - N/A Fog Fog
9:15 AM 35.2 °F - 33.1 °F 92% 29.94 in 3.0 mi Calm Calm - N/A   Overcast
9:35 AM 35.8 °F - 33.6 °F 92% 29.95 in 7.0 mi Calm Calm - N/A   Overcast
9:55 AM 37.8 °F 33.3 °F 35.6 °F 92% 29.95 in 7.0 mi West 5.8 mph - N/A   Overcast
10:15 AM 37.4 °F 30.8 °F 35.1 °F 91% 29.95 in 4.0 mi West 9.2 mph - N/A Rain Rain
10:35 AM 39.0 °F 33.4 °F 36.7 °F 91% 29.96 in 7.0 mi WNW 8.1 mph - N/A   Overcast
10:55 AM 39.2 °F 33.6 °F 36.7 °F 91% 29.96 in 10.0 mi West 8.1 mph - N/A   Mostly Cloudy
11:15 AM 40.6 °F 34.3 °F 36.3 °F 85% 29.96 in 10.0 mi NW 10.4 mph 19.6 mph N/A   Scattered Clouds
11:35 AM 41.9 °F 36.3 °F 35.6 °F 78% 29.96 in 10.0 mi West 9.2 mph 17.3 mph N/A   Mostly Cloudy
11:55 AM 41.0 °F 37.1 °F 31.6 °F 69% 29.97 in 10.0 mi NNW 5.8 mph - N/A   Overcast
12:15 PM 41.2 °F 36.0 °F 30.4 °F 65% 29.97 in 10.0 mi WNW 8.1 mph - N/A   Overcast
12:35 PM 42.4 °F 35.7 °F 31.1 °F 64% 29.97 in 10.0 mi WNW 12.7 mph - N/A   Mostly Cloudy
12:55 PM 44.6 °F 38.8 °F 27.5 °F 51% 29.97 in 10.0 mi West 11.5 mph 20.7 mph N/A   Scattered Clouds
1:15 PM 45.3 °F 39.7 °F 28.4 °F 52% 29.98 in 10.0 mi WNW 11.5 mph 16.1 mph N/A   Overcast
1:35 PM 43.5 °F 36.4 °F 26.2 °F 51% 29.98 in 10.0 mi West 15.0 mph 20.7 mph N/A   Mostly Cloudy
1:55 PM 43.2 °F 37.9 °F 26.2 °F 51% 29.98 in 10.0 mi West 9.2 mph - N/A   Overcast
2:15 PM 42.6 °F 37.2 °F 26.2 °F 52% 29.99 in 10.0 mi WNW 9.2 mph - N/A   Overcast
2:35 PM 43.2 °F 37.0 °F 27.9 °F 55% 30.00 in 10.0 mi NW 11.5 mph - N/A   Overcast
2:55 PM 40.8 °F 36.2 °F 28.6 °F 62% 30.01 in 10.0 mi WNW 6.9 mph - N/A   Drizzle
3:15 PM 44.4 °F 40.5 °F 27.5 °F 52% 30.01 in 10.0 mi NNW 6.9 mph - N/A   Overcast
3:35 PM 43.2 °F 36.6 °F 26.8 °F 52% 30.01 in 10.0 mi NW 12.7 mph 18.4 mph N/A   Overcast
3:55 PM 42.6 °F 38.4 °F 27.3 °F 55% 30.02 in 10.0 mi WNW 6.9 mph - N/A   Overcast
4:15 PM 42.6 °F 36.3 °F 27.1 °F 54% 30.02 in 10.0 mi WNW 11.5 mph 18.4 mph N/A   Overcast
4:35 PM 45.7 °F 38.3 °F 27.5 °F 49% 30.03 in 10.0 mi West 18.4 mph - N/A   Mostly Cloudy
4:55 PM 43.3 °F 36.5 °F 26.2 °F 51% 30.04 in 10.0 mi West 13.8 mph - N/A   Mostly Cloudy
5:15 PM 42.8 °F 35.1 °F 26.2 °F 52% 30.05 in 10.0 mi WNW 16.1 mph 20.7 mph N/A   Overcast
5:35 PM 41.2 °F 33.4 °F 26.8 °F 57% 30.06 in 10.0 mi WNW 15.0 mph 23.0 mph N/A   Mostly Cloudy
5:55 PM 41.0 °F 33.9 °F 27.1 °F 58% 30.07 in 10.0 mi WNW 12.7 mph 18.4 mph N/A   Mostly Cloudy
6:15 PM 40.6 °F 33.8 °F 28.2 °F 61% 30.09 in 10.0 mi WNW 11.5 mph 16.1 mph N/A   Overcast
6:35 PM 39.9 °F 34.5 °F 27.7 °F 62% 30.10 in 10.0 mi WNW 8.1 mph - N/A   Overcast
6:55 PM 39.6 °F 35.4 °F 28.2 °F 64% 30.11 in 10.0 mi WNW 5.8 mph - N/A   Overcast
7:15 PM 38.7 °F 32.4 °F 28.4 °F 67% 30.11 in 10.0 mi NNW 9.2 mph 16.1 mph N/A   Overcast
7:35 PM 36.9 °F 32.2 °F 28.4 °F 71% 30.12 in 10.0 mi NW 5.8 mph - N/A   Scattered Clouds
7:55 PM 36.9 °F 32.2 °F 28.0 °F 70% 30.13 in 10.0 mi NW 5.8 mph - N/A   Scattered Clouds
8:15 PM 35.8 °F 33.0 °F 27.3 °F 71% 30.14 in 10.0 mi East 3.5 mph - N/A   Scattered Clouds
8:35 PM 36.0 °F - 27.3 °F 71% 30.15 in 10.0 mi Calm Calm - N/A   Mostly Cloudy
8:55 PM 36.0 °F - 27.3 °F 71% 30.16 in 10.0 mi Calm Calm - N/A   Mostly Cloudy
9:15 PM 36.1 °F - 27.5 °F 71% 30.18 in 10.0 mi Calm Calm - N/A   Scattered Clouds
9:35 PM 35.4 °F - 27.3 °F 72% 30.19 in 10.0 mi Calm Calm - N/A   Scattered Clouds
9:55 PM 35.2 °F 32.4 °F 27.9 °F 74% 30.19 in 10.0 mi NNW 3.5 mph - N/A   Scattered Clouds
10:15 PM 35.1 °F 30.1 °F 27.5 °F 74% 30.18 in 10.0 mi NNW 5.8 mph - N/A   Clear
10:35 PM 35.1 °F 32.2 °F 27.3 °F 73% 30.18 in 10.0 mi NNW 3.5 mph - N/A   Clear
10:55 PM 33.3 °F - 27.7 °F 80% 30.19 in 10.0 mi Calm Calm - N/A   Clear
11:15 PM 33.4 °F - 27.7 °F 79% 30.19 in 10.0 mi Calm Calm - N/A   Clear
11:35 PM 33.1 °F - 27.5 °F 80% 30.19 in 10.0 mi Calm Calm - N/A   Clear
11:55 PM 31.5 °F - 26.2 °F 81% 30.20 in 10.0 mi Calm Calm - N/A   Clear